Location: Mt. Graham
(32.7020°N, 109.8880°W)
Time: 15:07:15
(UTC-07:00)

Tiangong 1 - Visible Passes

Search period start: 24 November 2017 00:00
Search period end: 04 December 2017 00:00
Orbit: 283 x 307 km, 42.8° (Epoch: 24 November)

Date Brightness Start Highest point End Pass type
(mag) Time Alt. Az. Time Alt. Az. Time Alt. Az.
24 Nov 2.1 18:44:16 10° W 18:46:16 30° NW 18:46:16 30° NW visible
25 Nov 3.1 18:51:17 10° WNW 18:52:30 16° NW 18:52:30 16° NW visible
26 Nov 3.8 18:58:27 10° NW 18:58:32 10° NW 18:58:32 10° NW visible
29 Nov 3.1 17:42:02 10° NW 17:43:05 12° NNW 17:44:06 10° NNE visible
02 Dec 3.1 18:00:25 10° N 18:00:48 10° N 18:01:10 10° NNE visible
03 Dec 2.8 18:05:04 10° NNW 18:06:24 13° NNE 18:06:48 13° NNE visible
